AUA2EC LPPR-LEMD

Flight info

Callsign AUA2EC
Flight time N/A
Altitude 30000
Route BELDU UL155 ADORO L155 ZMR
Aircraft A20N/M-SDE2E3FGHIRWXY/LB1

Departure

Time N/A
Airport Francisco de Sá Carneiro Airport (LPPR)

Arrival

Time 2026-04-30 18:23
Airport Adolfo Suárez Madrid–Barajas Airport (LEMD)
Time Latitude Longitude Altitude Speed Heading
2026-04-30 17:39 41.19962 -8.33300 12937 ft 383 kts 81°
2026-04-30 17:41 41.24229 -8.04257 18878 ft 416 kts 81°
2026-04-30 17:42 41.25333 -7.96632 20101 ft 424 kts 81°
2026-04-30 17:42 41.27019 -7.84929 21929 ft 435 kts 81°
2026-04-30 17:43 41.28161 -7.76937 23093 ft 443 kts 81°
2026-04-30 17:44 41.29888 -7.64749 24640 ft 453 kts 81°
2026-04-30 17:44 41.31637 -7.52299 26027 ft 462 kts 82°
2026-04-30 17:46 41.34608 -7.30915 28008 ft 476 kts 82°
2026-04-30 17:47 41.36982 -7.13597 28069 ft 476 kts 82°
2026-04-30 17:48 41.41072 -6.83265 28062 ft 476 kts 82°
2026-04-30 17:50 41.45660 -6.48438 28075 ft 477 kts 82°
2026-04-30 17:52 41.48714 -6.22294 28079 ft 475 kts 86°
2026-04-30 17:53 41.46479 -6.01291 28082 ft 463 kts 128°
2026-04-30 17:54 41.38703 -5.87586 28087 ft 463 kts 129°
2026-04-30 17:56 41.23225 -5.60205 28090 ft 463 kts 129°
2026-04-30 17:58 41.11591 -5.39780 28095 ft 463 kts 129°
2026-04-30 18:00 40.96023 -5.12661 28081 ft 463 kts 129°
2026-04-30 18:01 40.86237 -4.95736 28081 ft 463 kts 129°
2026-04-30 18:02 40.80416 -4.85710 26637 ft 453 kts 129°
2026-04-30 18:02 40.74754 -4.75992 24553 ft 442 kts 129°
2026-04-30 18:03 40.69196 -4.66481 22463 ft 429 kts 129°
2026-04-30 18:04 40.63812 -4.57294 20411 ft 416 kts 129°
2026-04-30 18:05 40.56312 -4.46155 17763 ft 400 kts 134°
2026-04-30 18:06 40.48921 -4.35539 15055 ft 386 kts 134°
2026-04-30 18:07 40.41859 -4.25438 13237 ft 355 kts 135°
2026-04-30 18:08 40.37144 -4.18711 12809 ft 313 kts 135°
2026-04-30 18:09 40.32930 -4.09193 11323 ft 306 kts 109°
2026-04-30 18:10 40.30309 -3.98698 9723 ft 300 kts 110°
2026-04-30 18:11 40.27752 -3.88530 8204 ft 290 kts 110°
2026-04-30 18:11 40.25880 -3.81128 7114 ft 282 kts 110°
2026-04-30 18:12 40.24052 -3.73927 6090 ft 273 kts 109°
2026-04-30 18:13 40.22905 -3.69417 5986 ft 251 kts 109°
2026-04-30 18:13 40.21410 -3.63553 5983 ft 254 kts 109°
2026-04-30 18:14 40.20101 -3.58429 5988 ft 254 kts 110°
2026-04-30 18:15 40.18422 -3.51885 5984 ft 254 kts 109°
2026-04-30 18:15 40.17817 -3.45215 5742 ft 254 kts 63°
2026-04-30 18:16 40.20250 -3.41927 5110 ft 252 kts 38°
2026-04-30 18:16 40.23263 -3.39645 4474 ft 250 kts 27°
2026-04-30 18:17 40.24785 -3.38696 4346 ft 239 kts 16°
2026-04-30 18:17 40.26380 -3.38436 4249 ft 225 kts 354°
2026-04-30 18:17 40.29363 -3.38984 3999 ft 212 kts 348°
2026-04-30 18:18 40.30302 -3.39368 3996 ft 215 kts 333°
2026-04-30 18:18 40.31566 -3.40402 3994 ft 211 kts 322°
2026-04-30 18:18 40.32677 -3.41535 3991 ft 192 kts 320°
2026-04-30 18:18 40.33717 -3.42597 4000 ft 193 kts 321°
2026-04-30 18:19 40.34776 -3.43671 3993 ft 190 kts 321°
2026-04-30 18:19 40.35816 -3.44727 4003 ft 193 kts 321°
2026-04-30 18:19 40.36882 -3.45811 4004 ft 189 kts 320°
2026-04-30 18:19 40.37849 -3.46815 4000 ft 163 kts 320°
2026-04-30 18:20 40.38664 -3.47638 3969 ft 137 kts 322°
2026-04-30 18:20 40.39413 -3.48370 3705 ft 134 kts 321°
2026-04-30 18:20 40.40149 -3.49109 3453 ft 134 kts 321°
2026-04-30 18:20 40.40871 -3.49843 3274 ft 128 kts 321°
2026-04-30 18:21 40.41570 -3.50545 3126 ft 129 kts 321°
2026-04-30 18:21 40.42284 -3.51249 2997 ft 128 kts 321°
2026-04-30 18:21 40.42977 -3.51974 2833 ft 127 kts 320°
2026-04-30 18:21 40.43674 -3.52705 2594 ft 128 kts 321°
2026-04-30 18:22 40.44366 -3.53419 2463 ft 126 kts 322°
2026-04-30 18:22 40.45759 -3.54819 2092 ft 124 kts 323°
2026-04-30 18:22 40.46437 -3.55514 1967 ft 123 kts 323°
2026-04-30 18:23 40.47041 -3.56127 1979 ft 86 kts 322°
2026-04-30 18:23 40.47353 -3.56449 1988 ft 32 kts 328°
2026-04-30 18:23 40.47469 -3.56587 1993 ft 18 kts 306°
2026-04-30 18:23 40.47532 -3.56723 1993 ft 14 kts 295°
2026-04-30 18:24 40.47561 -3.56801 1993 ft 0 kts 295°
2026-04-30 18:25 40.47560 -3.56828 1993 ft 7 kts 253°
2026-04-30 18:25 40.47504 -3.56858 1991 ft 12 kts 161°
2026-04-30 18:26 40.47307 -3.56668 1987 ft 22 kts 146°
2026-04-30 18:26 40.47183 -3.56539 1980 ft 24 kts 142°
2026-04-30 18:26 40.47044 -3.56453 1980 ft 22 kts 169°
2026-04-30 18:27 40.46838 -3.56458 1974 ft 12 kts 181°
2026-04-30 18:27 40.46743 -3.56470 1973 ft 15 kts 182°
2026-04-30 18:28 40.46489 -3.56488 1972 ft 19 kts 184°
2026-04-30 18:28 40.46372 -3.56497 1976 ft 19 kts 185°
2026-04-30 18:28 40.46295 -3.56635 1974 ft 11 kts 268°
2026-04-30 18:29 40.46295 -3.56749 1971 ft 14 kts 264°
2026-04-30 18:29 40.46331 -3.56875 1973 ft 0 kts 293°